Regional Weather Roundup
Issued by NWS

Home | Current Version | Previous Version | Text Only | Print | Product List | Glossary Off
Versions: 1 2 3 4 5 6 7 8 9 10 11 12 13 14 15 16 17 18 19 20 21 22 23 24 25 26 27 28 29 30 31 32 33 34 35 36 37 38 39 40 41 42 43 44 45 46 47 48 49 50

000
ASUS43 KMPX 041110
RWRMN
WEATHER ROUNDUP FOR MINNESOTA
NATIONAL WEATHER SERVICE TWIN CITIES/CHANHASSEN MN
600 AM CDT SAT JUL 04 2015


NOTE: "FAIR" INDICATES FEW OR NO CLOUDS BELOW 12,000 FEET WITH NO
SIGNIFICANT WEATHER AND/OR OBSTRUCTIONS TO VISIBILITY. N/A MEANS
CURRENT SKY AND/OR WEATHER CONDITIONS ARE NOT AVAILABLE.

MNZ060>063-068>070-041200-
   Twin Cities Metro

CITY           SKY/WX    TMP DP  RH WIND       PRES   REMARKS
TWIN CITIES    MOCLDY    66  60  81 SW3       29.94S
ST PAUL        CLEAR     63  60  90 CALM      29.94S FOG
CRYSTAL        CLEAR     62  59  90 CALM      29.93R FOG
BLAINE         CLEAR     63  63 100 CALM      29.94R
LAKEVILLE      CLEAR     61  57  88 CALM      29.95R
EDEN PRAIRIE   CLOUDY    62  60  93 S3        29.93S FOG
SOUTH ST PAUL  CLEAR     64  59  86 CALM      29.94S
LAKE ELMO      FAIR      59  59 100 CALM      29.95S FOG
$$
MNZ001>005-007-008-013>017-022>024-027-028-041200-
   Northwest Minnesota

CITY           SKY/WX    TMP DP  RH WIND       PRES   REMARKS
BEMIDJI        FOG       52  52  99 CALM      29.94S VSB<1/4
HALLOCK        CLEAR     57  57 100 SE8       29.86F FOG
ROSEAU         CLEAR     57  54  88 S5        29.90R
WARROAD        CLEAR     61  57  88 S5        29.91S
THIEF RVR FALL CLEAR     59  57  94 SE6       29.91S
CROOKSTON      CLEAR     59  57  94 S8        29.89F FOG
FOSSTON        CLEAR     54  48  82 CALM      29.93S FOG
DETROIT LAKES  CLEAR     61  59  94 CALM      29.94S FOG
MOORHEAD       CLEAR     63  61  94 SE7       29.91S FOG
PARK RAPIDS    FOG       56  54  93 CALM      29.94S VSB 1/4
MAHNOMEN       CLOUDY    60  58  92 SE6       29.92S FOG
$$
MNZ006-009>011-018-025>026-041200-
   North Central Minnesota

CITY           SKY/WX    TMP DP  RH WIND       PRES   REMARKS
BAUDETTE       CLEAR     56  52  86 S6        29.92S
FLAG ISLAND    PTCLDY    70  61  73 S9        29.89S
INTL FALLS     CLEAR     51  50  96 SE3       29.95R FOG
WASKISH        CLEAR     54  54 100 E3        29.94R FOG
BIG FORK       CLEAR     46  45  93 CALM      29.96R
LONGVILLE      CLEAR     52  52 100 CALM      29.95S FOG
GRAND RAPIDS   CLEAR     54  50  87 CALM      29.96R
CRANE LAKE     CLEAR     45  45 100 CALM      29.98R
ORR            CLEAR     48  45  87 CALM      29.94S FOG
COOK           CLEAR     46  46 100 CALM      29.97S FOG
WALKER         FOG       54  53  99 CALM      29.95S VSB 1/2
$$
MNZ012-019>021-037-041200-
   Northeast Minnesota

CITY           SKY/WX    TMP DP  RH WIND       PRES   REMARKS
DULUTH         CLEAR     58  53  84 E3        29.96R
ELY            FOG       45  45 100 CALM      29.98R VSB 1/2
HIBBING        CLEAR     46  46 100 CALM      29.96S FOG
DULUTH HARBOR  CLEAR     63  57  82 E10       29.96R
TWO HARBORS    CLEAR     61  55  82 VRB6      29.94S
SILVER BAY     CLEAR     52  50  93 CALM      29.96R FOG
GRAND MARAIS     N/A     53  51  93 NW3       29.96R
G MARAIS ARPRT CLEAR     48  45  87 N5        30.00R FOG
$$
MNZ029>031-032-039>041-046>048-054>057-064-041200-
   West Central Minnesota

CITY           SKY/WX    TMP DP  RH WIND       PRES   REMARKS
FERGUS FALLS   CLEAR     66  63  88 SE5       29.92S FOG
WHEATON        CLEAR     61  61 100 CALM      29.93S FOG
MORRIS         FOG       59  57  94 SE5       29.92S VSB<1/4
ALEXANDRIA     PTCLDY    61  59  93 E3        29.96R FOG
ELBOW LAKE     FAIR      64  62  93 SE6       29.92S FOG
WADENA         FOG       55  54  94 CALM      29.94S VSB 1/4
GLENWOOD       FOG       63  61  94 CALM      29.95R VSB 1
APPLETON       FOG       59  55  88 CALM      29.93R VSB 1/4
BENSON         FOG       57  55  94 CALM      29.93S VSB 1/4
ORTONVILLE     CLEAR     63  61  94 CALM      29.92S FOG
MADISON        CLEAR     63  61  94 CALM      29.93S FOG
WILLMAR        FAIR      61  61 100 CALM      29.95S FOG
$$
MNZ033>034-036-042>043-049>051-058-059-041200-
   Central Minnesota

CITY           SKY/WX    TMP DP  RH WIND       PRES   REMARKS
ST CLOUD       FOG       58  58 100 CALM      29.94R VSB 3/4
SAUK CENTRE    FOG       57  56  99 CALM      29.95R VSB 1/2
PAYNESVILLE    FOG       54  54 100 CALM      29.95R VSB<1/4
AITKIN         HAZE      52  45  76 CALM      29.94R VSB<1/4
PINE RIVER     MOCLDY    50  50 100 CALM      29.98S FOG
BRAINERD       FOG       53  52  96 CALM      29.95S VSB 1/4
STAPLES        MOCLDY    55  55 100 CALM      29.94S FOG
LONG PRAIRIE   CLOUDY    57  55  94 CALM      29.95S FOG
LITTLE FALLS   FOG       55  54  94 CALM      29.94S VSB 1/2
LITCHFIELD       N/A     63  63 100 CALM      29.94S FOG
BUFFALO        CLEAR     60  57  90 CALM      29.95S FOG
MAPLE LAKE     CLEAR     59  58  98 CALM      29.95R FOG
$$
MNZ037-044-045-052-053-041200-
   East Central Minnesota

CITY           SKY/WX    TMP DP  RH WIND       PRES   REMARKS
PRINCETON      FOG       57  55  94 CALM      29.94S VSB 1/4
MORA           FOG       54  54 100 CALM      29.96S VSB 1/2
CAMBRIDGE      HAZE      59  52  77 CALM      29.93R VSB<1/4
RUSH CITY      CLEAR     54  53  97 CALM      29.94S FOG
MOOSE LAKE       N/A     52  52 100 CALM      29.94R FOG
HINCKLEY       FAIR      55  55 100 CALM      29.95R FOG
CLOQUET        CLEAR     52  48  87 CALM      29.96R
MCGREGOR       CLEAR     50  50 100 CALM      29.96R
$$
MNZ071>073-080-081-089-090-097-098-041200-
   Southwest Minnesota

CITY           SKY/WX    TMP DP  RH WIND       PRES   REMARKS
MONTEVIDEO       N/A     63  63 100 CALM      29.94S FOG
GRANITE FALLS    N/A     59  59  97 CALM      29.95R FOG
CANBY          CLEAR     66  62  88 W5        29.95R FOG
MARSHALL       CLEAR     66  59  77 W6          N/A
REDWOOD FALLS  CLEAR     64  61  90 S3        29.94R FOG
OLIVIA         CLEAR     61  57  88 S5        29.93S FOG
PIPESTONE      CLEAR     63  61  94 CALM      29.97S FOG
WINDOM         CLEAR     63  59  88 CALM      29.98S FOG
WORTHINGTON    CLEAR     63  54  72 SW7       29.98S
JACKSON        CLEAR     63  55  77 SW6       29.98F HAZE
TRACY          MOCLDY    67  63  89 SW8       29.96S FOG
SLAYTON        CLEAR     64  61  93 CALM      29.98S FOG
$$
MNZ065>067-074>077-082>085-091>093-041200-
   South Central Minnesota

CITY           SKY/WX    TMP DP  RH WIND       PRES   REMARKS
MANKATO        CLEAR     61  57  88 S3        29.95F
NEW ULM        CLEAR     61  61 100 CALM      29.95S FOG
ST JAMES       CLEAR     63  59  88 CALM      29.97R FOG
FAIRMONT       CLEAR     63  54  72 CALM      29.97S
GLENCOE        CLOUDY    60  58  96 CALM      29.94S
FARIBAULT      CLEAR     61  57  88 S3        29.96S
OWATONNA       CLEAR     61  55  82 CALM      29.97S
WASECA           N/A     55  54  94 CALM      29.97S FOG
ALBERT LEA     CLEAR     61  57  88 CALM      29.98R
$$
MNZ078>079-086>088-094>096-041200-
   Southeast Minnesota

CITY           SKY/WX    TMP DP  RH WIND       PRES   REMARKS
ROCHESTER      CLEAR     60  55  83 W7        29.98S
RED WING       CLEAR     57  57 100 CALM      29.94R
STANTON        CLEAR     61  57  88 S3        29.94R
DODGE CENTER   PTCLDY    57  55  94 SW5       29.97S
WINONA         PTCLDY    59  57  94 CALM      29.96S
AUSTIN         CLEAR     57  55  94 CALM      29.98R
PRESTON        CLEAR     59  52  77 SW5       29.99R
$$
ABBREVIATIONS USED IN REMARKS
   TC - TEMPERATURES IN CELSIUS
  WCI - WIND CHILL INDEX
   HX - HEAT INDEX
  VSB - VISIBILITY
$$


USA.gov is the U.S. government's official web portal to all federal, state and local government web resources and services.